Oak Ridge, TN

7:27 PM EDT on March 29, 2017 (GMT -0400)
Oak Ridge

Weather History for KOQT - June, 2014

Change the Weather History Date:

Saturday, June 7, 2014

  Actual Average (KTYS) Record (KTYS)
Temperature  
Mean Temperature 75 °F -  
Max Temperature 88 °F 82 °F 99 °F (1933)
Min Temperature 63 °F 61 °F 47 °F (1998)
Cooling Degree Days 10    
Growing Degree Days 25 (Base 50)    
Moisture  
Dew Point 62 °F    
Average Humidity 61    
Maximum Humidity 90    
Minimum Humidity 40    
Precipitation  
Precipitation 0.00 in - - ()
Sea Level Pressure  
Sea Level Pressure 29.92 in    
Wind  
Wind Speed 2 mph (South)    
Max Wind Speed 7 mph    
Max Gust Speed -    
Visibility 10 miles    
Events      
Averages and records for this station are not official NWS values.
T = Trace of Precipitation, MM = Missing Value Source: NWS Daily Summary

Daily Weather History Graph

Daily Weather History Graph

Search for Another Location

Airport or City:

Trip Planner

Search our weather history database for the weather conditions in past years. The results will help you decide how hot, cold, wet, or windy it might be!

Date:

Astronomy

Jun. 07, 2014 Rise Set
Actual Time 6:20 AM EDT 8:51 PM EDT
Civil Twilight 5:50 AM EDT 9:21 PM EDT
Nautical Twilight 5:12 AM EDT 9:59 PM EDT
Astronomical Twilight 4:31 AM EDT 10:40 PM EDT
Moon 3:18 PM EDT (6/7) 2:30 AM EDT (6/7)
Length of Visible Light 15h 31m
Length of Day
14h 31m
Waxing Gibbous, 67% of the Moon is Illuminated
Jun 7
Waxing Gibbous
Jun 13
Full
Jun 19
Last Quarter
Jun 27
New
Jul 5
First Quarter

Hourly Weather History & Observations

Time (EDT) Temp. Heat Index Dew Point Humidity Pressure Visibility Wind Dir Wind Speed Gust Speed Precip Events Conditions
12:53 AM 70.0 °F - 62.1 °F 76% 29.92 in 10.0 mi East 3.5 mph - N/A   Clear
1:53 AM 69.1 °F - 61.0 °F 75% 29.92 in 10.0 mi Calm Calm - N/A   Clear
2:53 AM 69.1 °F - 62.1 °F 78% 29.92 in 10.0 mi Calm Calm - N/A   Scattered Clouds
3:53 AM 66.0 °F - 61.0 °F 84% 29.93 in 10.0 mi Calm Calm - N/A   Clear
5:53 AM 63.0 °F - 60.1 °F 90% 29.95 in 10.0 mi Calm Calm - N/A   Clear
6:53 AM 63.0 °F - 60.1 °F 90% 29.97 in 10.0 mi Calm Calm - N/A   Clear
8:53 AM 71.1 °F - 61.0 °F 70% 29.98 in 10.0 mi Calm Calm - N/A   Clear
9:53 AM 75.0 °F - 59.0 °F 57% 29.99 in 10.0 mi ENE 4.6 mph - N/A   Clear
10:53 AM 75.9 °F - 57.9 °F 54% 29.99 in 10.0 mi Variable 3.5 mph - N/A   Clear
11:53 AM 80.1 °F 80.7 °F 59.0 °F 48% 29.98 in 10.0 mi Variable 3.5 mph - N/A   Clear
12:53 PM 82.9 °F 83.2 °F 60.1 °F 46% 29.96 in 10.0 mi SSE 3.5 mph - N/A   Clear
1:53 PM 84.0 °F 84.0 °F 60.1 °F 44% 29.94 in 10.0 mi Calm Calm - N/A   Clear
2:53 PM 86.0 °F 85.4 °F 59.0 °F 40% 29.91 in 10.0 mi Variable 4.6 mph - N/A   Partly Cloudy
3:53 PM 87.1 °F 87.0 °F 61.0 °F 41% 29.91 in 10.0 mi Variable 5.8 mph - N/A   Clear
4:53 PM 87.1 °F 87.5 °F 62.1 °F 43% 29.90 in 10.0 mi West 4.6 mph - N/A   Clear
5:53 PM 87.1 °F 87.8 °F 63.0 °F 44% 29.89 in 10.0 mi South 6.9 mph - N/A   Clear
6:53 PM 84.9 °F 86.1 °F 64.0 °F 49% 29.89 in 10.0 mi SSW 6.9 mph - N/A   Clear
7:53 PM 84.0 °F 85.8 °F 64.9 °F 53% 29.88 in 10.0 mi Variable 3.5 mph - N/A   Scattered Clouds
8:53 PM 82.0 °F 83.8 °F 64.9 °F 56% 29.87 in 10.0 mi Calm Calm - N/A   Clear
9:53 PM 79.0 °F - 66.9 °F 66% 29.88 in 10.0 mi SW 3.5 mph - N/A   Clear
10:53 PM 77.0 °F - 66.9 °F 71% 29.89 in 10.0 mi Calm Calm - N/A   Clear
11:53 PM 77.0 °F - 66.9 °F 71% 29.87 in 10.0 mi SSE 3.5 mph - N/A   Clear